OK1PNK-5 Weather Reports


time (UTC)temp
F
wind
direction
speed
knots
gust
knots
rain 1hr
in
rain 24hr
in
rain mn
in
humidity
%
barometer
mb
20260503200223 71 125 3.5 7.0 0.00 0.00 0.00 31 970.4
20260503195223 71 127 2.6 6.1 0.00 0.00 0.00 30 970.4
20260503194223 71 127 2.6 6.1 0.00 0.00 0.00 30 970.4
20260503193223 72 90 0.9 1.7 0.00 0.00 0.00 28 970.3
20260503192223 73 100 1.7 4.3 0.00 0.00 0.00 27 970.2
20260503191223 73 98 1.7 5.2 0.00 0.00 0.00 27 970.2
20260503190223 73 98 1.7 5.2 0.00 0.00 0.00 27 970.2
20260503185223 74 90 1.7 3.5 0.00 0.00 0.00 27 970.1
20260503182223 75 90 2.6 5.2 0.00 0.00 0.00 25 970.0
20260503181223 76 90 1.7 2.6 0.00 0.00 0.00 24 969.9
20260503180223 76 90 1.7 2.6 0.00 0.00 0.00 24 969.9
20260503175223 76 90 0.9 2.6 0.00 0.00 0.00 24 969.9
20260503174223 77 90 1.7 2.6 0.00 0.00 0.00 23 969.8
20260503173223 77 90 1.7 2.6 0.00 0.00 0.00 23 969.8
20260503172223 78 104 1.7 4.3 0.00 0.00 0.00 22 969.9
20260503171223 78 90 1.7 3.5 0.00 0.00 0.00 23 969.9
20260503170223 78 90 1.7 3.5 0.00 0.00 0.00 23 969.9
20260503150223 82 160 5.2 11.3 0.00 0.00 0.00 19 970.6
20260503140223 83 195 1.7 6.1 0.00 0.00 0.00 18 971.3
20260503131223 64 8 0.9 1.7 0.00 0.00 0.00 32 976.4
20260503130223 64 8 0.9 1.7 0.00 0.00 0.00 32 976.4
20260503110223 64 8 0.9 1.7 0.00 0.00 0.00 32 976.4
20260503100223 64 8 0.9 1.7 0.00 0.00 0.00 32 976.4
20260503090223 64 8 0.9 1.7 0.00 0.00 0.00 32 976.4
20260503081223 64 8 0.9 1.7 0.00 0.00 0.00 32 976.4
20260503080223 64 8 0.9 1.7 0.00 0.00 0.00 32 976.4
20260503072223 64 8 0.9 1.7 0.00 0.00 0.00 32 976.4
20260503071223 64 8 0.9 1.7 0.00 0.00 0.00 32 976.4
20260503070223 64 8 0.9 1.7 0.00 0.00 0.00 32 976.4
20260503060223 64 8 0.9 1.7 0.00 0.00 0.00 32 976.4
20260503054223 64 8 0.9 1.7 0.00 0.00 0.00 32 976.4
20260503053223 64 8 0.9 1.7 0.00 0.00 0.00 32 976.4
20260503052223 64 8 0.9 1.7 0.00 0.00 0.00 32 976.4
20260503051223 64 8 0.9 1.7 0.00 0.00 0.00 32 976.4
20260503050223 64 8 0.9 1.7 0.00 0.00 0.00 32 976.4
20260503045223 64 8 0.9 1.7 0.00 0.00 0.00 32 976.4
20260503044223 64 8 0.9 1.7 0.00 0.00 0.00 32 976.4
20260503043223 64 8 0.9 1.7 0.00 0.00 0.00 32 976.4
20260503042223 64 8 0.9 1.7 0.00 0.00 0.00 32 976.4
20260503041223 64 8 0.9 1.7 0.00 0.00 0.00 32 976.4
20260503040223 64 8 0.9 1.7 0.00 0.00 0.00 32 976.4
20260503035223 64 8 0.9 1.7 0.00 0.00 0.00 32 976.4
20260503034223 64 8 0.9 1.7 0.00 0.00 0.00 32 976.4
20260503033223 64 8 0.9 1.7 0.00 0.00 0.00 32 976.4
20260503032223 64 8 0.9 1.7 0.00 0.00 0.00 32 976.4
20260503031223 64 8 0.9 1.7 0.00 0.00 0.00 32 976.4
20260503030223 64 8 0.9 1.7 0.00 0.00 0.00 32 976.4
20260503025223 64 8 0.9 1.7 0.00 0.00 0.00 32 976.4
20260503024223 64 8 0.9 1.7 0.00 0.00 0.00 32 976.4
20260503023223 64 8 0.9 1.7 0.00 0.00 0.00 32 976.4
20260503022223 64 8 0.9 1.7 0.00 0.00 0.00 32 976.4
20260503021223 64 8 0.9 1.7 0.00 0.00 0.00 32 976.4
20260503020223 64 8 0.9 1.7 0.00 0.00 0.00 32 976.4
20260503015223 64 8 0.9 1.7 0.00 0.00 0.00 32 976.4
20260503014223 64 8 0.9 1.7 0.00 0.00 0.00 32 976.4
20260503013223 64 8 0.9 1.7 0.00 0.00 0.00 32 976.4
20260503012223 64 8 0.9 1.7 0.00 0.00 0.00 32 976.4
20260503011223 64 8 0.9 1.7 0.00 0.00 0.00 32 976.4
20260503010223 64 8 0.9 1.7 0.00 0.00 0.00 32 976.4
20260503005223 64 8 0.9 1.7 0.00 0.00 0.00 32 976.4
20260503004223 64 8 0.9 1.7 0.00 0.00 0.00 32 976.4
20260503003223 64 8 0.9 1.7 0.00 0.00 0.00 32 976.4
20260503002223 64 8 0.9 1.7 0.00 0.00 0.00 32 976.4
20260503001223 64 8 0.9 1.7 0.00 0.00 0.00 32 976.4
20260503000223 64 8 0.9 1.7 0.00 0.00 0.00 32 976.4
20260502235223 64 8 0.9 1.7 0.00 0.00 0.00 32 976.4
20260502234223 64 8 0.9 1.7 0.00 0.00 0.00 32 976.4
20260502233223 64 8 0.9 1.7 0.00 0.00 0.00 32 976.4
20260502232223 64 8 0.9 1.7 0.00 0.00 0.00 32 976.4
20260502231223 64 8 0.9 1.7 0.00 0.00 0.00 32 976.4
20260502230223 64 8 0.9 1.7 0.00 0.00 0.00 32 976.4
20260502225223 64 8 0.9 1.7 0.00 0.00 0.00 32 976.4
20260502224223 64 8 0.9 1.7 0.00 0.00 0.00 32 976.4
20260502223223 64 8 0.9 1.7 0.00 0.00 0.00 32 976.4
20260502222223 64 8 0.9 1.7 0.00 0.00 0.00 32 976.4
20260502221223 64 8 0.9 1.7 0.00 0.00 0.00 32 976.4
20260502220223 64 8 0.9 1.7 0.00 0.00 0.00 32 976.4
20260502215223 64 8 0.9 1.7 0.00 0.00 0.00 32 976.4
20260502214223 64 8 0.9 1.7 0.00 0.00 0.00 32 976.4
20260502213223 64 8 0.9 1.7 0.00 0.00 0.00 32 976.4
20260502212223 64 8 0.9 1.7 0.00 0.00 0.00 32 976.4
20260502211223 64 8 0.9 1.7 0.00 0.00 0.00 32 976.4
20260502210223 64 8 0.9 1.7 0.00 0.00 0.00 32 976.4
20260502205223 64 8 0.9 1.7 0.00 0.00 0.00 32 976.4
20260502204223 64 8 0.9 1.7 0.00 0.00 0.00 32 976.4
20260502203223 65 13 0.9 1.7 0.00 0.00 0.00 31 976.4
20260502202223 66 360 0.9 1.7 0.00 0.00 0.00 31 976.4
20260502201223 67 315 0.9 1.7 0.00 0.00 0.00 32 976.4